Terminal Aerodrome Forecast
Issued by NWS

Home | Current Version | Previous Version | Text Only | Print | Product List | Glossary On
Versions: 1 2 3 4 5 6 7 8 9 10 11 12 13 14
570
FTUS44 KLZK 221730
TAFPBF
TAF
KPBF 221730Z 2218/2318 25008G15KT P6SM BKN050
     FM230000 27008KT P6SM OVC050
     FM230500 34008KT P6SM VCSH SCT050 OVC100
     FM231200 01004KT P6SM BKN025=

USA.gov is the U.S. government's official web portal to all federal, state and local government web resources and services.